Wind_Speed
11 12 13 9 9 9 9 9 8 5 5 7 6 7 8 10 13 16 17 16 16 20 22 21 19 18 18 16 14 15 12 10 9
9 8 8 9 5 7 8 7 8 9 8 7 8 9 10 10 11 13 17 19 18 21 19 22 21 21 21 20 17 18 16 14 11
11 11 13 10 7 6 5 5 6 7 7 10 14 12 13 11 12 12 12 18 20 20 22 23 26 23 23 22 20 19 19 16 14
13 11 13 12 9 9 6 6 5 7 7 7 9 10 12 13 12 13 12 14 20 21 23 23 20 24 22 23 22 22 20 18 19
17 13 11 16 10 8 7 8 6 7 9 9 7 7 11 12 11 14 12 12 14 17 20 20 17 21 25 25 23 23 22 20 19
20 20 15 11 13 13 13 13 12 11 11 10 11 10 11 11 13 15 16 13 13 15 15 21 16 19 26 27 27 25 21 21 20
29 27 23 18 18 21 24 23 22 20 14 12 9 14 14 13 16 17 18 14 13 14 18 19 20 21 24 26 27 26 25 24 25
34 35 34 31 26 27 27 25 21 23 21 17 13 12 18 15 14 17 19 19 17 18 17 19 23 23 26 29 28 29 29 29 28
37 37 42 40 36 31 30 30 27 24 24 22 17 14 16 20 16 16 18 20 21 19 21 21 19 19 25 27 28 30 29 29 31
41 43 44 43 45 41 38 33 32 30 26 21 18 16 16 18 21 19 19 20 20 20 21 22 22 21 20 22 26 29 30 31 30
44 46 44 47 44 45 44 42 36 35 32 32 26 24 21 22 23 24 21 20 20 22 22 23 23 21 21 23 24 27 31 33 31
43 45 48 45 49 47 49 46 46 43 37 34 32 29 24 24 25 26 24 20 20 21 20 22 23 24 22 23 24 24 28 29 31
42 42 44 49 46 52 51 51 51 47 43 43 38 35 32 29 29 27 25 23 22 22 22 21 22 23 23 21 22 26 34 37 38
40 41 43 46 46 46 54 51 53 53 53 50 42 38 36 33 30 30 28 27 23 20 21 25 25 24 24 25 26 23 24 29 36
43 40 44 43 46 46 47 55 51 49 49 51 52 45 42 36 33 31 32 29 27 24 21 21 24 25 26 25 25 22 18 15 19
40 36 41 42 41 43 47 47 53 50 50 49 53 49 48 40 37 35 32 32 28 31 28 24 24 25 26 26 23 20 19 16 14
34 34 34 38 38 37 37 45 47 52 51 51 49 52 48 46 41 40 33 30 32 35 32 29 26 27 26 24 23 20 18 19 20
34 34 32 36 37 37 37 37 43 49 49 54 51 46 48 50 49 45 42 42 25 28 31 33 31 29 27 24 25 22 19 18 20
35 35 35 33 37 40 36 41 43 45 50 49 47 48 48 44 42 46 40 32 32 33 28 33 36 35 33 30 26 22 21 20 22
34 33 33 36 36 33 32 32 41 44 43 45 45 40 42 49 51 46 42 39 42 44 40 37 37 38 38 39 31 26 24 25 26
Wind_Direction
28 13 9 7 353 356 352 327 298 296 288 276 260 246 235 240 236 231 224 212 212 217 210 210 207 203 205 203 197 181 195 208 201
360 5 3 357 324 329 344 345 325 300 274 287 279 271 253 240 244 242 233 227 219 215 207 211 213 212 209 205 202 204 218 218 217
336 336 333 323 319 265 277 319 331 335 297 269 279 279 273 263 249 248 239 230 226 226 225 232 219 212 213 213 213 209 214 219 220
309 332 330 298 302 302 260 261 294 311 326 280 278 273 268 261 249 248 240 233 230 232 231 235 235 215 213 222 222 217 214 216 216
299 304 310 318 283 275 284 303 308 298 296 284 251 275 275 246 245 240 236 234 230 225 231 242 243 222 212 221 221 222 215 221 219
281 284 290 297 277 291 300 304 289 311 328 289 262 258 257 253 229 232 236 231 230 224 227 232 236 230 220 224 228 231 227 228 229
275 276 272 268 278 278 285 284 284 289 296 309 284 242 252 257 243 224 231 234 233 230 232 232 232 222 225 228 231 230 230 229 229
270 267 267 267 265 267 274 278 278 272 273 289 292 274 241 241 258 243 232 232 233 231 233 233 233 228 227 233 234 233 231 231 228
265 265 264 263 262 257 262 271 271 273 275 271 279 270 258 245 235 244 239 237 231 229 233 240 241 240 233 233 239 241 242 237 234
266 259 257 256 254 256 256 255 263 267 269 269 265 270 263 260 241 239 244 240 237 236 233 240 245 245 243 242 243 246 246 244 239
273 267 256 249 249 245 247 251 247 252 261 270 260 264 274 259 251 239 238 240 232 233 240 245 246 249 243 243 243 246 249 249 248
270 265 263 254 241 240 237 241 247 242 243 250 255 259 257 253 250 245 238 238 241 237 235 244 253 255 248 245 247 249 249 248 249
274 265 258 256 245 237 237 234 239 245 243 233 241 249 256 252 251 249 245 237 241 244 235 239 247 258 256 251 248 261 256 257 253
280 276 265 256 251 239 237 238 234 237 240 246 237 246 252 248 246 247 244 240 238 245 245 247 250 247 248 248 242 247 258 274 245
274 272 274 271 260 251 237 238 239 235 235 237 240 238 243 244 239 237 244 245 244 239 244 252 250 246 247 246 248 250 254 295 260
289 282 263 270 272 268 250 240 238 235 234 236 235 228 234 237 238 240 241 238 246 247 239 238 247 248 244 241 240 245 239 239 234
287 284 277 269 261 266 262 251 242 235 234 235 239 229 230 236 235 241 241 252 251 249 245 239 238 243 245 249 242 240 236 226 227
287 285 281 270 263 261 259 252 244 239 232 233 238 246 228 235 234 236 240 241 248 235 234 247 243 243 248 245 242 235 240 235 232
285 278 277 275 273 263 258 250 242 239 235 235 236 240 240 236 239 236 235 235 235 230 224 239 239 239 241 242 244 236 241 241 237
287 284 273 273 273 270 266 251 236 234 233 229 228 225 226 234 238 236 240 244 240 245 242 235 236 241 243 243 241 237 241 241 244
Height
5882 5880 5879 5879 5880 5879 5878 5877 5877 5876 5877 5877 5878 5879 5880 5881 5881 5882 5883 5884 5885 5887 5890 5893 5895 5898 5900 5902 5903 5906 5908 5911 5912
5884 5882 5881 5879 5879 5879 5878 5876 5876 5876 5876 5876 5878 5878 5878 5879 5879 5880 5881 5882 5883 5886 5889 5891 5893 5896 5898 5899 5901 5903 5906 5909 5910
5884 5883 5883 5881 5879 5877 5877 5876 5875 5874 5874 5874 5875 5876 5877 5878 5878 5878 5880 5880 5880 5883 5887 5889 5891 5893 5896 5898 5900 5902 5903 5905 5907
5883 5882 5880 5880 5878 5877 5875 5874 5874 5873 5873 5873 5872 5873 5874 5875 5876 5877 5877 5878 5879 5880 5884 5886 5887 5889 5894 5897 5899 5901 5901 5902 5905
5878 5879 5879 5877 5876 5875 5875 5873 5872 5870 5870 5871 5870 5870 5871 5871 5873 5874 5875 5875 5876 5877 5880 5882 5883 5887 5890 5893 5896 5898 5899 5901 5902
5874 5874 5874 5874 5874 5872 5871 5871 5870 5870 5868 5867 5867 5867 5867 5867 5867 5869 5871 5871 5872 5874 5876 5880 5881 5883 5886 5890 5892 5895 5897 5899 5901
5866 5867 5867 5868 5868 5867 5866 5865 5866 5867 5865 5864 5863 5863 5863 5864 5864 5863 5865 5867 5869 5871 5872 5875 5878 5879 5883 5885 5887 5890 5892 5894 5896
5857 5857 5858 5859 5861 5860 5860 5859 5858 5859 5860 5860 5859 5859 5858 5857 5860 5860 5861 5862 5864 5865 5867 5870 5872 5875 5878 5881 5884 5885 5886 5888 5890
5847 5846 5846 5848 5850 5851 5852 5851 5851 5851 5851 5851 5854 5853 5853 5852 5852 5855 5856 5857 5858 5860 5862 5865 5867 5870 5872 5876 5879 5881 5883 5884 5886
5834 5834 5834 5834 5837 5839 5841 5842 5843 5843 5843 5845 5846 5848 5848 5847 5847 5849 5851 5852 5854 5856 5856 5859 5862 5865 5867 5870 5873 5875 5878 5879 5881
5815 5816 5818 5820 5822 5825 5827 5830 5832 5833 5835 5837 5838 5840 5841 5841 5841 5842 5843 5846 5847 5849 5851 5853 5855 5857 5859 5862 5865 5869 5871 5874 5878
5798 5798 5799 5802 5805 5809 5812 5816 5818 5821 5823 5826 5829 5830 5833 5833 5835 5836 5837 5840 5842 5843 5845 5847 5849 5851 5852 5854 5858 5861 5864 5866 5869
5780 5780 5782 5784 5787 5791 5794 5799 5803 5808 5812 5812 5816 5819 5823 5825 5827 5830 5832 5832 5834 5836 5838 5840 5842 5845 5846 5848 5851 5855 5856 5857 5859
5766 5765 5765 5766 5770 5774 5779 5782 5788 5792 5797 5800 5797 5808 5812 5815 5817 5820 5823 5824 5826 5829 5832 5835 5836 5837 5839 5842 5844 5846 5848 5847 5846
5755 5755 5752 5753 5755 5759 5763 5767 5772 5778 5782 5786 5792 5798 5802 5805 5806 5809 5812 5815 5817 5821 5823 5827 5830 5833 5834 5836 5837 5837 5837 5835 5834
5741 5738 5741 5740 5741 5743 5750 5753 5756 5764 5768 5772 5777 5783 5787 5792 5796 5799 5802 5805 5809 5812 5817 5820 5824 5826 5828 5829 5829 5832 5831 5831 5835
5732 5728 5727 5726 5729 5730 5733 5736 5742 5748 5753 5758 5763 5768 5774 5779 5784 5789 5793 5795 5797 5802 5808 5811 5813 5817 5818 5821 5823 5823 5826 5827 5830
5722 5718 5716 5714 5715 5717 5720 5721 5726 5732 5738 5744 5750 5755 5761 5767 5772 5777 5781 5786 5788 5791 5796 5801 5803 5807 5810 5813 5816 5817 5818 5821 5823
5710 5708 5705 5702 5701 5702 5704 5706 5709 5715 5723 5729 5737 5744 5750 5755 5759 5765 5772 5776 5780 5782 5785 5789 5792 5796 5800 5805 5809 5810 5811 5814 5817
5698 5695 5694 5691 5690 5689 5690 5691 5695 5701 5707 5714 5723 5732 5737 5743 5748 5755 5759 5765 5769 5774 5777 5778 5782 5787 5791 5795 5799 5803 5805 5806 5810